Location: Houston
(29.7630°N, 95.3630°W)
Time: 03:59:37
(UTC-06:00)

Daily predictions for brighter satellites

Satellite Brightness Start Highest point End
(mag) Time Altitude Azimuth Time Altitude Azimuth Time Altitude Azimuth
Cosmos 2237 Rocket 3.7 04:22:48 32° E 04:22:48 32° E 04:27:08 10° SE
BREEZE-M DEB (TANK) 4.4 04:52:33 42° NE 04:52:33 42° NE 04:55:09 10° ESE
Delta 142 4.4 04:58:32 72° S 04:58:42 72° S 05:06:14 10° E
Cosmos 371 Rocket 4.2 05:02:15 41° SSE 05:02:15 41° SSE 05:05:25 10° SSE
Thor Agena Rocket 3.6 04:59:20 10° SSE 05:04:32 74° ENE 05:04:59 69° NNE
Meteor 1-21 Rocket 4.1 05:05:57 64° N 05:06:49 82° E 05:12:22 10° S
Cosmos 1674 4.5 05:09:04 27° SSE 05:09:04 27° SSE 05:11:01 10° SSE
Cosmos 1980 3.5 05:09:35 80° SW 05:09:35 80° SW 05:15:01 10° SSE
Tsikada Rocket 4.1 05:04:47 10° N 05:11:09 76° E 05:17:25 10° S
Cosmos 836 Rocket 4.5 05:17:20 67° SW 05:17:20 67° SW 05:22:07 10° S
Tiangong 2 3.5 05:19:35 20° SE 05:19:35 20° SE 05:21:56 10° E
Cosmos 2333 Rocket 2.6 05:21:27 46° SW 05:21:27 46° SW 05:26:02 10° S
Cosmos 968 Rocket 3.4 05:18:51 10° SSW 05:24:06 88° WNW 05:29:24 10° NNE
CZ-3 R/B 3.8 05:21:34 29° W 05:28:56 37° SW 05:36:30 10° SSE
Cosmos 1725 Rocket 4.1 05:23:11 10° SSW 05:29:08 47° W 05:35:11 10° N
GPS 2-05 Rocket1 4.4 05:31:02 27° NE 05:31:02 27° NE 05:32:50 10° ENE
Cosmos 2219 Rocket 3.6 05:38:09 20° SW 05:38:09 20° SW 05:40:31 10° SSW
NOAA 6 4.0 05:32:33 10° N 05:37:38 59° WNW 05:42:43 10° SSW
ATLAS 2A CENTAUR R/B 4.3 05:26:53 27° W 05:40:43 75° S 05:46:24 10° ESE
USA 229 DEB 3.9 05:38:23 17° NNW 05:44:13 81° ENE 05:51:29 10° SSE
USA 229 3.9 05:38:27 17° NNW 05:44:19 81° ENE 05:51:35 10° SSE
Cosmos 1328 4.3 05:40:46 10° N 05:44:43 60° E 05:48:39 10° SSE
Cosmos 2221 3.7 05:41:43 10° SSE 05:45:50 44° E 05:49:58 10° NNE
ATLAS 3B CENTAUR R/B 4.3 05:42:06 10° SW 05:47:24 42° SE 06:01:06 10° E
Cosmos 304 Rocket 4.0 05:43:29 12° N 05:47:51 69° ENE 05:52:36 10° SSE
Cosmos 1461 3.4 05:48:17 37° SW 05:48:17 37° SW 05:51:45 10° S
ASTRO F (AKARI) 4.1 05:45:53 10° S 05:49:04 75° WSW 05:49:30 61° NW
OAO 2 Rocket 3.8 05:48:32 34° NW 05:50:08 46° N 05:54:53 10° ENE
ISS -0.8 05:48:48 12° N 05:50:13 15° NE 05:52:11 10° ENE
Cosmos 2227 4.1 05:46:53 10° SSW 05:52:30 88° WNW 05:58:08 10° NNE
CSL-04 Rocket 3.7 05:51:45 10° NNE 05:57:03 78° ESE 06:02:18 10° S
Cosmos 1777 Rocket 3.9 05:52:35 10° SSW 05:57:48 83° WNW 06:03:02 10° NNE
Cosmos 540 Rocket 3.9 05:57:07 28° WNW 05:58:59 38° W 06:03:41 10° SSW
Cosmos 2058 3.9 05:55:41 10° N 05:59:41 48° E 06:03:41 10° SSE
Aureole 2 Rocket 3.1 06:00:01 28° NW 06:01:52 47° WSW 06:05:45 10° S
SWIFT 4.2 06:02:05 13° SW 06:04:35 22° S 06:07:49 10° SE
DELTA 2 R/B (1) 3.6 06:02:14 22° W 06:05:45 64° NNW 06:11:17 10° ENE
Cosmos 2237 Rocket 3.2 06:04:42 23° W 06:05:52 25° WSW 06:10:25 10° SSW
Cosmos 1743 Rocket 4.1 06:05:12 21° NW 06:07:27 35° W 06:11:26 10° SSW
OE (NEXTSAT) 4.3 06:08:14 28° NW 06:09:59 88° WSW 06:13:33 10° SE
SL-16 R/B 2.2 06:04:45 10° NNW 06:10:15 63° WSW 06:15:49 10° S
Cosmos 1842 Rocket 4.4 06:07:36 10° SW 06:11:13 26° W 06:14:52 10° NNW
COSMO-SKYMED 1 2.9 06:07:59 10° S 06:12:07 45° W 06:16:17 10° NNW
CSL-04 DEB 4.4 06:09:23 10° N 06:13:44 78° WNW 06:18:00 10° SSW
IDEFIX/ARIANE 42P 3.2 06:14:44 10° NNE 06:19:58 61° E 06:25:08 10° S
Cosmos 2344 4.0 06:12:50 10° SSW 06:20:34 67° ESE 06:28:29 10° NE
Cosmos 2151 3.0 06:18:40 10° NNW 06:22:48 55° W 06:26:57 10° S
Cosmos 1271 Rocket 3.3 06:19:58 10° SW 06:23:28 33° W 06:26:56 10° NNW
Meteor 1-28 Rocket 3.5 06:21:56 10° S 06:25:32 45° W 06:29:10 10° NNW
Cosmos 1805 Rocket 4.1 06:22:37 10° N 06:26:59 61° E 06:31:17 10° SSE
Cosmos 1340 Rocket 2.7 06:23:07 10° N 06:27:03 77° W 06:31:00 10° S
Meteor 1-11 4.3 06:23:15 10° NNW 06:29:00 66° W 06:34:44 10° S
Cosmos 1538 Rocket 4.0 06:24:30 10° NNW 06:29:51 67° WSW 06:35:07 10° S
IUS-9 SRM-1 2.4 06:26:33 10° W 06:31:05 45° S 06:33:03 10° ESE
SL-14 R/B 4.0 06:33:34 10° NNW 06:37:13 33° W 06:40:52 10° SSW
Cosmos 2034 Rocket 4.0 06:31:52 10° SSW 06:37:59 70° W 06:44:12 10° N
NOSS 3-1 (C) 4.3 06:31:21 10° NNW 06:39:16 81° ENE 06:47:45 10° SSE
Ariane Rocket 3.8 06:35:37 10° NNW 06:39:59 29° WNW 06:44:21 10° SW
Cosmos 1484 Rocket 4.4 06:39:16 10° NNE 06:43:04 41° E 06:46:48 10° S
SJ-12 3.9 06:39:22 10° N 06:43:23 59° WNW 06:47:21 10° SSW
Cosmos 1626 2.3 06:41:27 10° N 06:45:11 78° E 06:48:54 10° S
Cosmos 1680 Rocket 4.4 06:41:04 10° N 06:46:14 53° ENE 06:51:25 10° SSE
IRS-1A Rocket 4.5 06:42:16 10° N 06:47:59 54° WNW 06:53:35 10° SSW
BREEZE-M DEB (TANK) 3.5 06:38:09 10° NW 06:48:38 51° WSW 06:51:54 10° SSE
Cosmos 389 Rocket 2.5 06:46:54 10° S 06:50:33 79° W 06:54:13 10° N
Cosmos 1328 Rocket 4.0 06:47:40 10° S 06:51:56 69° E 06:56:15 10° NNE
Sich 1 3.2 06:47:44 10° N 06:52:05 77° E 06:56:23 10° S
Nadezhda 4 Rocket 4.3 06:46:25 10° N 06:52:45 75° E 06:58:59 10° S
Cosmos 1943 4.5 06:47:46 10° N 06:53:11 43° ENE 06:58:31 10° SE
SMAP 3.1 06:48:59 10° N 06:53:35 65° WNW 06:58:11 10° SSW
Cosmos 1633 Rocket 3.4 06:50:03 10° N 06:54:24 70° E 06:58:41 10° SSE
